Rome, OR

9:59 AM MST on December 15, 2017 (GMT -0700)
Rome State

Weather History for KREO - July, 2013

Change the Weather History Date:

Saturday, July 13, 2013

  Actual Average Record
Temperature  
Mean Temperature 72 °F 72 °F  
Max Temperature 89 °F 92 °F 110 °F (2002)
Min Temperature 54 °F 52 °F 43 °F (1993)
Degree Days  
Heating Degree Days 0 0  
Month to date heating degree days 0 11  
Since 1 June heating degree days 94 136  
Since 1 July heating degree days 0 11  
Cooling Degree Days 7 7  
Month to date cooling degree days 161 78  
Year to date cooling degree days 319 150  
Since 1 June cooling degree days 297 140  
Growing Degree Days 22 (Base 50)    
Moisture  
Dew Point 26 °F    
Average Humidity 20    
Maximum Humidity 30    
Minimum Humidity 9    
Precipitation  
Precipitation 0.00 in 0.01 in 0.22 in (1982)
Month to date precipitation 0.41 0.15  
Year to date precipitation 3.03 5.77  
Sea Level Pressure  
Sea Level Pressure 29.94 in    
Wind  
Wind Speed 8 mph (NNE)    
Max Wind Speed 17 mph    
Max Gust Speed 23 mph    
T = Trace of Precipitation, MM = Missing Value Source: NWS Daily Summary

Daily Weather History Graph

Daily Weather History Graph

Search for Another Location

Airport or City:

Trip Planner

Search our weather history database for the weather conditions in past years. The results will help you decide how hot, cold, wet, or windy it might be!

Date:

Astronomy

Jul. 13, 2013 Rise Set
Actual Time 5:26 AM PDT 8:28 PM PDT
Civil Twilight 4:52 AM PDT 9:02 PM PDT
Nautical Twilight 4:08 AM PDT 9:45 PM PDT
Astronomical Twilight 3:17 AM PDT 10:36 PM PDT
Moon 10:55 AM PDT (7/13) 11:02 PM PDT (7/13)
Length of Visible Light 16h 09m
Length of Day
15h 02m
Waxing Crescent, 26% of the Moon is Illuminated
Jul 13
Waxing Crescent
Jul 15
First Quarter
Jul 22
Full
Jul 29
Last Quarter
Aug 6
New

Hourly Weather History & Observations

Time (PDT) Temp. Dew Point Humidity Pressure Visibility Wind Dir Wind Speed Gust Speed Precip Events Conditions
12:52 AM 64.0 °F 26.1 °F 24% 29.86 in - NNE 3.5 mph - N/A   Unknown
1:52 AM 63.0 °F 23.0 °F 22% 29.90 in - NNE 6.9 mph - N/A   Unknown
2:52 AM 60.1 °F 23.0 °F 24% 29.91 in - NE 6.9 mph - N/A   Unknown
3:52 AM 57.0 °F 23.0 °F 27% 29.94 in - NE 9.2 mph - N/A   Unknown
4:52 AM 55.0 °F 23.0 °F 29% 29.96 in - NE 8.1 mph - N/A   Unknown
5:52 AM 55.9 °F 25.0 °F 30% 29.98 in - ENE 8.1 mph - N/A   Unknown
6:52 AM 62.1 °F 26.1 °F 25% 29.99 in - NE 9.2 mph - N/A   Unknown
7:52 AM 64.9 °F 25.0 °F 22% 30.01 in - NNE 8.1 mph - N/A   Unknown
8:52 AM 68.0 °F 26.1 °F 21% 30.02 in - NNE 6.9 mph - N/A   Unknown
9:52 AM 72.0 °F 27.0 °F 19% 30.02 in - NE 8.1 mph - N/A   Unknown
10:52 AM 75.9 °F 28.0 °F 17% 30.01 in - NNE 8.1 mph - N/A   Unknown
11:52 AM 77.0 °F 28.0 °F 17% 30.00 in - Variable 3.5 mph - N/A   Unknown
12:52 PM 80.1 °F 28.9 °F 15% 29.98 in - Variable 4.6 mph - N/A   Unknown
1:52 PM 84.0 °F 26.1 °F 12% 29.96 in - WSW 9.2 mph - N/A   Unknown
2:52 PM 87.1 °F 26.1 °F 11% 29.93 in - West 9.2 mph - N/A   Unknown
3:52 PM 88.0 °F 24.1 °F 10% 29.91 in - West 17.3 mph - N/A   Unknown
4:52 PM 88.0 °F 23.0 °F 9% 29.90 in - WNW 4.6 mph - N/A   Unknown
5:52 PM 87.1 °F 23.0 °F 10% 29.89 in - Calm Calm - N/A   Unknown
6:52 PM 87.1 °F 23.0 °F 10% 29.86 in - SW 6.9 mph - N/A   Unknown
7:52 PM 84.9 °F 24.1 °F 11% 29.87 in - NNW 4.6 mph - N/A   Unknown
8:52 PM 75.9 °F 26.1 °F 16% 29.89 in - North 10.4 mph 17.3 mph N/A   Unknown
9:52 PM 73.0 °F 32.0 °F 22% 29.92 in - North 13.8 mph - N/A   Unknown
10:52 PM 70.0 °F 32.0 °F 25% 29.93 in - NNE 12.7 mph - N/A   Unknown
11:52 PM 62.1 °F 30.9 °F 31% 29.96 in - NE 4.6 mph - N/A   Unknown